GW1109 Weather Reports


Display with metric or nautical units.
time (UTC)temp
F
wind
direction
speed
MPH
gust
MPH
rain 1hr
in
rain 24hr
in
rain mn
in
humidity
%
barometer
mb
20260906034554 59 0 0.0 3.0 0.00 0.02 0.02 76 1013.8
20260906033049 59 0 0.0 3.0 0.00 0.02 0.02 77 1013.6
20260906031613 60 0 0.0 4.0 0.00 0.02 0.02 78 1013.6
20260906030055 60 342 1.0 5.0 0.00 0.02 0.02 77 1013.6
20260906024601 61 0 0.0 5.0 0.00 0.02 0.02 78 1013.4
20260906023102 61 0 0.0 3.0 0.00 0.02 0.02 79 1013.4
20260906021603 62 352 0.0 3.0 0.00 0.02 0.02 79 1013.4
20260906020057 62 325 1.0 7.0 0.00 0.02 0.02 83 1013.2
20260906014553 62 0 0.0 1.0 0.00 0.02 0.02 84 1013.2
20260906013050 62 0 0.0 0.0 0.00 0.02 0.02 83 1013.3
20260906011547 62 0 0.0 0.0 0.00 0.02 0.02 83 1013.4
20260906010052 62 0 0.0 1.0 0.00 0.02 0.02 82 1013.4
20260906004546 63 0 0.0 0.0 0.00 0.02 0.02 81 1013.2
20260906003050 63 0 0.0 0.0 0.00 0.02 0.02 80 1013.0
20260906001547 64 0 0.0 0.0 0.00 0.02 0.02 80 1012.9
20260906000107 64 0 0.0 1.0 0.00 0.02 0.02 82 1012.6
20260905234559 65 0 0.0 3.0 0.00 0.02 0.02 83 1012.7
20260905233052 65 0 0.0 3.0 0.00 0.02 0.02 81 1012.5
20260905231549 66 0 0.0 0.0 0.00 0.02 0.02 77 1012.4
20260905230100 66 0 0.0 4.0 0.00 0.02 0.02 71 1012.3
20260905224552 66 5 1.0 3.0 0.00 0.02 0.02 70 1012.2
20260905223051 66 0 0.0 3.0 0.00 0.02 0.02 68 1012.2
20260905221549 67 0 0.0 5.0 0.00 0.02 0.02 66 1012.1
20260905220059 67 56 2.0 10.0 0.00 0.02 0.02 64 1011.8
20260905214555 67 321 2.0 12.0 0.00 0.02 0.02 66 1011.6
20260905213049 67 360 1.0 3.0 0.00 0.02 0.02 68 1011.5
20260905211602 67 317 2.0 4.0 0.00 0.02 0.02 67 1011.3
20260905204611 68 23 2.0 8.0 0.00 0.02 0.02 65 1011.2
20260905203101 69 26 4.0 15.0 0.00 0.02 0.02 62 1011.1
20260905201553 69 17 2.0 9.0 0.00 0.02 0.02 66 1011.0
20260905200058 68 12 2.0 8.0 0.00 0.02 0.02 69 1011.0
20260905194600 68 352 3.0 8.0 0.00 0.02 0.02 69 1011.0
20260905193052 68 348 3.0 10.0 0.02 0.02 0.02 72 1011.0
20260905191549 68 94 2.0 9.0 0.02 0.02 0.02 74 1011.0
20260905190057 66 0 0.0 5.0 0.02 0.02 0.02 80 1011.0
20260905184557 66 29 1.0 8.0 0.02 0.02 0.02 78 1011.0
20260905183056 68 183 3.0 6.0 0.00 0.00 0.00 73 1010.8
20260905181548 66 338 2.0 9.0 0.00 0.00 0.00 78 1011.0
20260905180104 66 24 3.0 15.0 0.00 0.00 0.00 80 1011.0
20260905174555 67 21 5.0 9.0 0.00 0.03 0.00 79 1010.9
20260905173100 66 350 4.0 15.0 0.00 0.03 0.00 78 1010.9
20260905171546 68 43 4.0 11.0 0.00 0.03 0.00 71 1010.8
20260905164602 70 92 3.0 12.0 0.00 0.03 0.00 66 1010.7
20260905163101 68 355 3.0 8.0 0.00 0.03 0.00 72 1010.8
20260905161600 68 313 2.0 7.0 0.00 0.03 0.00 73 1011.0
20260905160056 67 37 3.0 9.0 0.00 0.03 0.00 75 1011.0
20260905154556 67 350 3.0 9.0 0.00 0.03 0.00 76 1011.1
20260905153100 66 96 3.0 9.0 0.00 0.03 0.00 80 1011.1
20260905151554 65 49 2.0 12.0 0.00 0.03 0.00 83 1011.2
20260905144600 65 325 4.0 11.0 0.00 0.03 0.00 83 1011.0
20260905143052 65 346 5.0 12.0 0.00 0.03 0.00 77 1010.9
20260905141558 66 41 6.0 13.0 0.00 0.03 0.00 75 1010.7
20260905140100 66 19 2.0 10.0 0.00 0.03 0.00 75 1010.5
20260905134601 66 13 1.0 13.0 0.00 0.03 0.00 76 1010.3
20260905133057 66 24 1.0 10.0 0.00 0.03 0.00 78 1010.2
20260905131550 66 63 3.0 9.0 0.00 0.03 0.00 78 1010.2
20260905130059 66 0 2.0 10.0 0.00 0.03 0.00 80 1010.0
20260905124558 65 0 2.0 8.0 0.00 0.03 0.00 82 1010.0
20260905123053 65 21 2.0 7.0 0.00 0.03 0.00 84 1009.9
20260905121548 64 0 0.0 4.0 0.00 0.03 0.00 86 1009.8
20260905120100 65 0 0.0 7.0 0.00 0.03 0.00 88 1009.8
20260905114558 63 0 0.0 3.0 0.00 0.03 0.00 94 1009.8
20260905113053 62 0 0.0 2.0 0.00 0.03 0.00 93 1009.8
20260905111548 62 0 0.0 2.0 0.00 0.03 0.00 94 1009.5
20260905110104 61 0 0.0 2.0 0.00 0.03 0.00 93 1009.4
20260905104556 61 0 0.0 4.0 0.00 0.03 0.00 93 1009.3
20260905103059 61 306 0.0 3.0 0.00 0.03 0.00 93 1009.0
20260905101606 61 0 0.0 3.0 0.00 0.03 0.00 94 1009.0
20260905100050 61 0 0.0 1.0 0.00 0.03 0.00 94 1008.9
20260905094559 61 0 0.0 3.0 0.00 0.03 0.00 94 1008.6
20260905093123 61 0 0.0 0.0 0.00 0.03 0.00 93 1008.6
20260905091604 61 0 0.0 1.0 0.00 0.03 0.00 91 1008.4
20260905090051 61 0 0.0 1.0 0.00 0.03 0.00 87 1008.4
20260905084548 61 0 0.0 0.0 0.00 0.03 0.00 85 1008.5
20260905083108 62 0 0.0 1.0 0.00 0.03 0.00 83 1008.3
20260905081558 62 0 0.0 3.0 0.00 0.03 0.00 82 1008.4
20260905074549 63 311 1.0 5.0 0.00 0.03 0.00 81 1008.4
20260905073100 62 311 1.0 5.0 0.00 0.03 0.00 81 1008.4
20260905071556 62 0 1.0 4.0 0.00 0.03 0.00 81 1008.5
20260905070111 63 345 1.0 4.0 0.00 0.03 0.00 80 1008.5
20260905064549 63 0 0.0 3.0 0.00 0.03 0.00 79 1008.5
20260905063059 63 0 0.0 5.0 0.00 0.03 0.00 78 1008.5
20260905061607 64 0 1.0 4.0 0.00 0.03 0.00 77 1008.6
20260905060053 64 269 3.0 6.0 0.00 0.03 0.00 76 1008.6
20260905054555 65 315 2.0 5.0 0.00 0.03 0.00 75 1008.7
20260905053059 65 296 3.0 8.0 0.00 0.03 0.00 74 1008.4
20260905051558 64 307 2.0 7.0 0.00 0.03 0.00 76 1008.6
20260905050055 64 325 1.0 5.0 0.00 0.03 0.00 76 1008.7
20260905044549 64 292 2.0 4.0 0.00 0.03 0.00 76 1008.8
20260905043058 64 0 1.0 6.0 0.00 0.03 0.00 74 1008.8
20260905041600 64 327 3.0 7.0 0.00 0.03 0.00 75 1008.7
20260905040057 65 314 2.0 6.0 0.00 0.03 0.00 73 1008.9